Temperature
22 22 21 21 21 22 23 24 24 24 25 25 25 24 23 22 21 19 19 19 18 18 18 18 18 18 18 18 18 17 17 17 18 18 18 18 18 18 18 18 18 18 18 17 18 18 18 18 18
21 21 21 22 22 23 23 24 24 24 24 24 24 24 23 22 21 19 19 19 19 18 18 18 18 18 18 18 18 17 17 18 18 17 18 18 18 18 18 17 17 17 17 17 18 18 18 18 18
22 22 23 23 23 23 23 24 24 25 25 25 24 23 22 21 20 19 19 19 19 18 18 18 18 18 17 17 17 17 17 17 17 17 17 17 17 17 17 17 17 17 17 17 17 17 17 18 18
22 23 24 24 24 24 24 24 25 25 25 24 24 23 21 21 20 19 19 19 19 18 18 18 18 18 17 17 17 17 17 17 17 17 17 17 17 17 17 17 17 17 17 17 17 17 17 17 17
23 24 23 23 24 25 25 25 25 25 25 24 24 22 21 20 19 19 19 19 19 18 18 18 18 18 18 17 17 17 17 17 17 17 17 17 17 17 17 17 17 17 17 17 17 17 17 17 17
24 24 23 23 24 25 25 25 25 25 24 24 23 22 20 20 19 19 19 19 19 18 18 18 18 18 18 18 17 17 17 17 17 17 17 17 17 17 17 17 17 17 17 17 17 17 17 17 17
24 23 24 24 24 24 25 25 25 25 24 24 24 22 20 20 20 19 19 19 19 19 18 18 18 18 18 18 17 17 17 17 17 17 17 17 17 17 17 17 17 17 17 17 17 17 17 17 17
24 24 24 24 24 24 25 25 25 24 24 23 23 23 21 20 20 20 19 19 19 19 19 19 18 18 18 18 18 18 17 17 17 17 17 17 17 17 17 17 17 17 17 17 17 17 17 17 17
25 24 23 24 24 24 25 25 25 24 24 23 23 22 21 20 20 20 20 20 19 19 19 19 19 18 18 18 18 18 18 17 17 17 17 17 17 17 17 16 17 16 16 16 16 16 16 16 16
25 23 24 25 25 25 25 25 25 24 23 23 22 21 21 20 20 20 20 19 19 19 19 19 19 19 18 18 18 18 17 17 17 17 17 17 17 17 16 16 16 16 16 16 16 16 16 16 16
26 24 25 25 25 25 25 24 24 24 23 23 22 21 20 20 20 20 20 19 19 19 19 19 19 19 19 18 18 18 17 17 17 17 17 17 17 17 16 16 16 16 16 16 16 16 16 16 16
26 25 25 25 25 25 24 24 24 23 23 22 22 21 21 20 20 20 20 19 19 19 19 19 19 19 19 18 18 18 17 17 17 17 17 17 17 17 17 16 16 16 16 16 16 16 16 16 16
25 25 25 24 24 24 24 24 23 23 23 22 22 21 21 20 20 20 20 20 19 19 19 19 19 19 18 18 18 18 17 17 17 17 17 17 17 17 17 16 16 16 16 16 16 16 16 16 16
25 25 25 25 24 24 24 24 23 23 22 22 22 21 21 21 20 20 20 19 19 19 18 18 18 18 18 18 18 17 17 17 17 17 17 17 17 17 16 16 16 16 16 16 16 16 16 15 15
25 25 25 25 25 25 24 23 23 23 23 22 22 21 21 21 20 20 20 19 19 19 18 18 18 18 18 18 17 17 17 17 17 17 17 16 16 16 16 16 16 16 16 16 16 16 15 15 15
25 25 24 25 25 25 24 22 24 23 23 22 22 21 21 21 20 20 20 19 19 19 18 18 18 18 18 18 17 17 17 17 16 16 16 16 16 16 16 16 16 16 16 16 16 15 15 15 15
25 24 24 25 26 26 24 23 23 23 23 22 22 22 21 21 20 20 20 19 19 19 18 18 18 18 17 17 17 17 17 16 16 16 16 16 16 16 16 16 16 16 15 15 15 15 15 15 15
24 25 25 25 25 25 24 23 24 24 23 23 22 22 22 21 20 20 20 19 19 19 18 18 17 17 17 17 17 17 16 16 16 16 16 16 16 16 16 15 15 15 15 15 15 15 15 15 15
26 25 25 25 26 25 24 24 24 24 24 23 23 22 22 22 21 20 20 19 19 18 18 18 17 17 17 17 16 16 16 16 16 16 15 15 15 15 15 15 15 15 15 15 15 15 15 15 15
25 25 25 25 26 25 24 24 25 25 24 24 23 23 23 22 21 20 20 19 19 18 18 18 17 17 17 16 16 16 16 16 15 15 15 15 15 15 15 15 15 15 15 15 15 15 15 14 14
25 25 25 25 25 25 25 24 24 25 24 24 24 23 23 22 22 21 20 19 19 18 18 18 17 17 17 16 16 16 16 15 15 15 15 15 15 15 15 15 15 15 15 15 14 14 14 14 14
24 25 25 25 24 24 25 23 23 24 24 24 24 23 23 22 22 21 20 19 19 18 18 18 17 17 17 16 16 16 15 15 15 15 15 15 15 15 15 15 15 15 15 14 14 14 14 14 14
25 25 25 25 24 24 25 24 24 24 24 24 24 23 23 22 22 21 20 19 19 18 18 17 17 17 17 16 16 16 15 15 15 15 15 15 15 15 15 14 14 14 14 14 14 14 14 14 14
25 25 25 25 24 23 24 24 23 24 24 24 24 23 23 22 22 21 20 19 19 18 18 17 17 17 17 16 16 16 15 15 15 14 14 14 14 14 14 14 14 14 14 14 14 14 14 14 14
25 24 23 22 22 23 25 24 24 24 25 25 24 23 23 22 21 21 20 19 19 18 18 17 17 17 16 16 16 16 15 15 15 14 14 14 14 14 14 14 14 14 14 14 14 14 14 13 13
25 24 22 22 22 24 25 24 23 25 25 24 24 23 23 22 21 21 20 19 19 18 18 17 17 17 16 16 16 16 15 15 15 14 14 14 14 14 14 14 14 14 14 14 14 13 13 13 13
24 24 24 23 24 23 24 24 24 24 24 24 24 23 22 22 21 20 20 19 18 18 17 17 17 16 16 16 16 15 15 15 14 14 14 14 14 13 13 13 13 13 13 13 13 13 13 13 13
25 25 24 23 22 22 23 24 23 23 23 23 23 23 22 22 21 20 20 19 18 18 17 17 16 16 16 16 15 15 15 15 14 14 14 14 13 13 13 13 13 13 13 13 13 13 13 13 13
24 24 24 24 23 22 22 22 24 23 24 23 23 23 22 22 21 20 19 19 18 17 17 17 16 16 16 15 15 15 15 14 14 14 14 13 13 13 13 13 13 13 13 13 13 13 13 13 12
24 24 24 22 22 23 22 22 25 24 24 24 23 23 22 21 21 20 19 18 18 17 17 16 16 16 15 15 15 14 14 14 14 13 13 13 13 13 13 13 12 12 12 12 12 12 12 12 12
Wind_Speed
9 11 8 3 2 0 6 7 8 7 7 9 10 10 13 12 8 7 2 5 7 9 12 13 12 12 13 13 13 14 14 14 14 13 13 13 13 13 13 12 12 12 12 12 12 12 11 11 10
10 7 4 3 2 2 5 7 9 9 7 6 9 11 13 11 11 7 4 4 7 10 12 12 11 11 12 12 13 13 14 14 14 13 13 13 13 13 13 12 12 12 12 12 12 11 11 11 11
11 7 3 2 3 5 6 7 9 8 6 6 9 11 9 7 9 6 5 6 8 11 14 12 12 12 12 12 13 13 13 13 13 13 13 13 13 13 12 12 12 12 12 11 11 11 11 11 11
6 3 2 1 6 8 7 7 6 7 7 7 8 9 9 9 7 7 6 8 10 10 13 12 12 12 12 12 12 12 12 12 12 12 12 12 12 12 12 12 12 11 11 11 11 11 11 11 10
3 2 0 3 6 7 8 7 6 8 8 9 11 11 10 10 10 8 6 7 9 9 11 12 12 12 11 11 12 12 11 11 11 11 11 11 11 11 12 12 11 11 11 11 10 10 10 10 10
3 2 0 3 7 7 6 5 7 9 8 8 10 11 8 8 8 6 5 6 8 8 10 12 12 12 11 11 11 10 10 10 9 9 9 9 10 11 11 11 11 11 11 10 10 10 10 9 9
3 1 1 4 6 6 6 6 7 8 8 7 7 9 8 8 6 6 5 6 7 6 8 10 11 11 11 11 9 9 8 8 7 7 7 7 8 9 10 10 10 10 10 9 9 9 8 8 8
3 2 1 3 5 6 7 7 7 8 8 7 6 6 7 8 6 6 6 5 6 6 6 6 9 10 10 10 9 7 7 6 5 5 5 5 5 7 9 10 9 9 9 8 7 6 6 6 6
1 0 2 3 4 6 7 7 7 7 8 8 10 10 10 9 7 6 5 5 5 5 4 4 5 7 7 8 8 7 6 5 5 4 3 3 3 6 8 9 8 7 6 5 4 3 3 4 3
1 2 3 4 5 6 7 6 5 5 6 7 9 10 10 7 6 6 5 5 5 4 4 4 4 5 5 6 6 4 4 4 3 3 3 2 4 6 8 9 6 5 3 2 1 1 0 1 2
2 3 4 5 6 6 6 6 5 5 4 5 7 9 8 6 5 5 5 4 5 5 4 4 3 4 4 4 4 2 3 2 2 4 5 4 5 5 6 4 4 3 2 1 1 1 1 4 5
3 4 4 5 5 4 4 4 5 5 5 7 7 8 7 5 5 4 5 4 5 5 3 3 3 3 4 5 3 2 3 3 3 4 6 5 3 2 3 2 2 2 2 2 3 3 6 7 7
3 3 5 5 4 4 4 4 4 5 6 7 8 8 6 5 4 5 5 5 5 5 3 3 2 3 4 4 2 3 3 3 4 4 4 4 3 2 2 2 4 4 4 3 2 3 5 6 6
2 4 4 4 4 3 3 3 4 3 5 6 7 7 6 4 4 5 4 4 5 5 4 3 3 3 4 4 3 3 3 3 5 4 4 6 4 3 3 3 3 3 4 4 4 4 4 4 4
4 4 4 4 5 4 3 2 4 5 6 6 6 6 6 5 4 4 4 4 4 4 4 4 3 3 4 5 4 4 3 4 4 4 6 6 5 4 3 3 2 3 5 6 5 5 3 3 3
7 6 5 5 6 6 5 2 5 6 7 5 5 6 6 5 4 3 4 4 4 4 5 5 3 3 4 5 4 3 4 5 4 4 6 6 6 6 4 2 2 4 5 4 3 3 3 4 4
7 6 5 6 6 5 4 2 4 7 8 6 5 5 6 6 4 4 4 3 4 4 5 5 4 4 5 5 4 4 4 4 4 4 4 5 5 5 5 2 2 4 3 3 3 4 3 3 3
4 4 3 4 6 4 4 5 5 7 8 7 6 6 7 7 6 5 5 4 4 3 4 6 5 4 5 3 3 3 3 2 3 3 4 5 6 6 5 2 3 5 3 3 3 3 3 2 1
4 3 3 2 4 4 5 6 6 7 8 7 6 6 6 7 8 7 6 5 4 3 3 5 5 5 4 3 2 2 2 2 2 2 4 5 6 6 5 3 3 3 2 2 2 2 2 2 1
6 5 4 3 3 4 5 6 6 7 7 6 6 6 6 6 7 8 7 6 4 4 3 4 5 5 4 3 2 2 2 1 2 2 4 5 5 4 3 2 2 2 2 3 2 2 2 2 2
7 6 5 5 4 6 7 7 7 8 7 6 5 5 5 5 6 8 8 7 5 4 4 4 4 5 4 4 2 2 2 2 2 2 2 3 4 4 5 4 3 2 1 1 1 1 1 1 2
6 4 6 7 6 5 7 5 5 7 9 8 7 5 5 4 5 7 8 7 6 5 4 4 4 4 4 4 3 2 2 1 0 1 1 1 3 3 4 3 2 1 1 1 0 0 0 0 2
5 5 7 9 9 9 9 7 5 8 8 8 7 6 5 5 5 6 7 7 7 6 5 4 4 4 3 3 3 2 2 1 1 1 1 1 1 1 2 3 2 1 1 0 1 1 1 0 0
6 8 10 10 9 9 9 7 3 5 7 8 7 6 5 5 5 6 7 6 6 6 5 4 3 3 3 3 3 3 2 1 1 0 0 0 0 1 1 2 2 1 1 1 0 1 0 0 0
8 7 4 5 6 6 4 5 2 3 5 5 7 6 5 5 5 6 7 7 6 6 5 4 4 3 3 3 3 2 3 2 2 1 1 0 0 1 1 1 1 1 1 1 1 1 1 1 1
7 8 5 4 4 3 3 3 4 6 6 6 6 6 5 5 5 5 6 7 6 6 6 5 4 3 3 3 3 2 2 2 1 1 1 0 0 0 1 1 2 1 1 1 1 1 1 1 0
7 6 7 8 9 7 4 3 5 6 6 6 6 6 5 5 5 5 6 7 6 5 5 5 4 4 3 3 2 2 2 2 2 1 0 0 0 1 0 0 1 1 0 1 1 1 1 1 0
8 7 6 6 5 6 5 3 3 6 5 4 4 5 5 4 5 5 5 5 5 5 4 4 4 3 2 1 2 1 1 1 1 1 1 1 1 0 1 1 1 1 1 1 0 0 1 1 1
8 9 7 6 6 5 5 1 2 4 5 4 4 4 4 4 4 5 5 5 5 5 4 3 3 3 2 2 2 2 1 1 1 1 1 1 1 1 1 1 1 1 1 1 1 1 2 2 2
7 8 8 6 6 6 5 1 1 4 3 3 3 4 4 4 4 5 5 5 4 4 4 3 3 3 3 2 2 2 1 1 1 1 1 1 1 1 1 1 1 1 1 1 1 2 2 2 2
Wind_Direction
248 238 232 244 264 214 60 62 63 53 56 50 48 59 64 52 53 85 110 63 78 84 80 68 63 63 65 66 66 64 62 62 64 64 64 63 63 63 61 60 63 63 61 60 58 53 50 49 49
264 258 253 237 261 76 75 76 71 62 64 69 62 63 71 63 74 97 101 77 82 86 80 72 69 68 69 69 68 66 65 64 65 65 64 66 66 64 62 62 63 63 62 60 58 55 54 52 51
259 261 262 254 34 59 75 78 84 79 62 69 75 61 56 65 74 97 108 103 87 85 85 79 75 74 75 73 71 69 67 67 65 66 68 68 67 65 64 63 62 62 61 59 56 54 56 55 53
258 254 251 51 64 65 78 92 96 91 75 68 84 79 67 60 77 97 108 100 92 93 93 90 85 81 79 77 72 70 71 71 69 69 72 72 70 67 64 62 61 61 59 56 54 56 56 57 55
242 261 195 84 79 74 76 81 87 80 74 74 81 89 86 77 85 95 97 98 96 99 103 103 99 93 88 82 78 75 74 74 73 73 75 76 73 69 66 63 62 63 60 57 56 58 57 56 53
268 265 120 91 90 79 77 76 78 83 84 88 95 98 92 99 96 98 96 95 98 107 113 116 114 109 102 94 87 83 82 80 80 80 81 83 80 75 71 67 64 62 61 60 60 61 59 55 51
270 301 95 106 98 91 80 69 71 75 71 66 87 100 109 106 108 111 105 94 98 102 116 127 130 124 117 111 102 96 96 94 95 94 94 95 93 86 79 72 70 66 63 63 63 63 62 60 53
297 313 51 90 99 91 90 83 73 71 74 60 58 89 115 123 129 119 113 102 98 97 101 120 133 138 134 129 119 117 118 117 118 122 122 119 113 103 90 81 76 71 67 67 69 68 67 65 57
286 3 45 60 83 97 106 100 89 78 82 76 69 76 109 125 129 119 112 103 90 91 95 100 109 115 119 121 132 149 151 152 155 165 167 161 132 119 99 96 96 88 80 75 76 76 75 75 60
172 69 58 60 75 93 98 95 107 106 85 86 93 98 108 122 125 119 112 104 99 88 81 89 97 103 104 102 121 138 135 148 173 157 130 102 89 95 98 117 122 122 112 111 136 222 254 108 72
117 103 85 77 72 79 92 89 88 101 89 85 103 114 120 130 122 115 109 102 96 82 65 70 85 91 110 107 98 96 103 104 50 50 77 58 71 89 100 127 136 148 140 81 18 279 44 69 72
110 90 74 83 79 82 91 102 89 78 79 84 94 110 119 120 119 110 107 101 101 97 87 72 76 89 80 80 86 79 68 60 54 36 55 57 52 60 76 73 65 68 57 53 44 28 44 50 55
151 122 109 104 95 97 100 100 93 90 95 101 106 114 118 125 121 113 107 107 102 101 99 78 72 80 84 81 66 74 60 51 61 41 38 60 54 41 66 64 54 45 38 42 50 49 47 48 41
128 129 125 134 141 140 123 123 139 132 128 122 120 121 128 128 120 109 111 106 98 94 84 71 64 62 80 86 77 67 61 55 55 34 26 48 52 45 48 57 54 46 36 33 46 62 58 63 55
181 171 172 183 183 166 154 173 165 160 144 142 140 135 139 136 128 126 121 108 104 105 103 85 68 53 68 77 68 71 60 63 57 37 19 40 46 56 49 44 50 53 42 42 40 50 54 63 68
208 208 200 187 195 184 197 198 154 162 156 156 161 152 149 147 151 140 114 109 103 102 101 97 84 66 65 69 65 60 64 59 55 46 20 24 35 57 55 39 35 57 51 44 37 40 42 48 47
219 216 202 180 191 193 188 207 164 170 168 171 177 169 161 158 161 141 124 121 113 105 109 107 96 83 75 75 66 45 62 60 50 47 35 21 24 49 65 42 23 51 54 30 26 47 42 49 41
233 231 218 195 171 191 201 209 190 184 180 182 183 181 173 166 164 158 145 136 122 114 114 114 102 88 84 80 75 54 52 58 51 42 42 23 21 38 62 46 35 51 51 29 21 42 44 42 12
271 262 255 236 173 200 220 222 203 197 189 190 185 188 183 174 166 158 149 140 132 120 105 111 113 97 90 78 75 72 52 39 44 34 38 38 30 28 43 36 35 50 50 43 26 33 40 7 16
264 260 253 247 219 231 233 235 216 201 192 194 192 187 183 178 164 154 149 145 145 136 128 116 116 111 105 93 94 93 84 54 61 33 28 29 33 25 29 50 49 49 43 32 27 39 29 343 353
246 255 263 267 260 250 252 247 226 185 179 176 181 184 181 178 164 155 154 155 151 146 139 124 120 118 114 108 92 74 61 40 40 44 32 8 26 29 28 31 37 36 60 46 7 66 63 330 323
257 265 269 269 265 256 243 254 230 186 174 173 174 176 175 172 163 155 156 157 155 151 141 135 130 126 127 127 116 110 98 88 352 41 62 21 28 33 31 20 19 14 26 55 308 95 89 189 298
277 285 269 263 263 266 253 259 220 174 179 168 164 164 168 169 166 158 153 157 159 157 152 152 149 143 142 146 148 155 141 149 106 63 49 22 5 17 32 19 13 360 346 45 312 357 34 61 293
270 265 260 254 253 257 247 248 213 186 169 156 155 152 159 162 161 155 152 151 157 154 150 159 160 150 151 166 168 171 151 142 129 101 81 353 353 318 9 26 4 353 350 345 303 273 220 202 349
243 259 258 239 227 241 224 234 164 131 124 137 144 145 148 151 153 156 156 152 152 152 157 168 161 162 168 188 195 191 162 170 172 181 189 187 117 324 318 347 327 336 4 356 348 311 296 207 192
244 250 259 275 271 271 235 220 129 124 125 129 132 133 141 142 140 146 151 149 155 161 164 170 172 179 184 193 204 191 160 161 146 172 133 138 135 205 304 350 5 9 16 6 5 346 309 295 249
253 252 268 280 287 284 242 176 157 133 135 141 143 137 141 142 141 148 149 149 156 160 165 175 172 174 186 195 172 159 160 147 143 183 127 166 202 227 141 335 318 334 43 35 1 326 297 274 283
253 272 268 260 276 277 272 239 167 151 152 142 138 136 141 140 138 137 134 143 149 149 160 174 165 169 168 149 134 121 116 110 147 167 187 222 254 170 197 235 245 259 214 170 231 289 282 263 217
227 243 257 268 263 272 286 329 107 137 144 147 135 125 135 132 131 130 136 142 145 143 146 146 145 143 150 163 146 142 143 177 160 189 217 231 264 236 241 239 263 265 249 218 203 221 245 256 244
246 251 258 264 273 276 277 257 78 113 121 132 133 130 129 122 125 126 132 134 134 136 140 147 153 155 159 171 165 155 169 190 191 225 224 227 256 271 281 263 282 281 276 264 225 242 245 255 244
Height
1500 1500 1500 1503 1503 1505 1506 1503 1500 1501 1501 1503 1503 1503 1508 1511 1516 1526 1526 1523 1523 1521 1520 1518 1518 1517 1517 1516 1516 1516 1516 1516 1516 1516 1516 1516 1516 1516 1515 1515 1515 1515 1515 1515 1515 1514 1514 1514 1513
1500 1501 1503 1503 1505 1511 1511 1503 1504 1504 1504 1505 1505 1507 1510 1515 1519 1522 1524 1524 1524 1523 1521 1520 1519 1519 1518 1518 1518 1518 1518 1518 1518 1518 1518 1517 1517 1517 1517 1517 1517 1517 1517 1517 1516 1516 1516 1515 1515
1501 1502 1503 1501 1504 1510 1510 1504 1504 1505 1505 1505 1508 1511 1514 1519 1521 1523 1524 1525 1525 1524 1522 1522 1521 1520 1520 1520 1520 1520 1520 1520 1520 1520 1520 1519 1519 1519 1519 1519 1519 1519 1518 1518 1518 1517 1517 1517 1516
1503 1504 1502 1504 1508 1504 1503 1503 1504 1505 1507 1507 1509 1514 1519 1522 1523 1524 1525 1526 1525 1525 1524 1523 1523 1522 1522 1522 1522 1522 1522 1522 1522 1522 1521 1521 1521 1521 1521 1521 1520 1520 1520 1520 1519 1519 1518 1518 1518
1504 1503 1504 1508 1507 1504 1502 1503 1504 1506 1508 1510 1512 1517 1522 1525 1525 1526 1526 1527 1527 1526 1525 1525 1525 1524 1524 1524 1524 1524 1524 1524 1524 1523 1523 1523 1523 1523 1523 1522 1522 1522 1522 1521 1521 1520 1520 1520 1519
1504 1502 1509 1513 1508 1505 1504 1505 1506 1507 1510 1512 1514 1518 1524 1526 1527 1527 1528 1528 1528 1528 1527 1527 1527 1526 1526 1526 1526 1526 1526 1526 1526 1525 1525 1525 1525 1525 1524 1524 1524 1524 1523 1523 1522 1522 1521 1521 1520
1505 1504 1508 1509 1509 1508 1507 1507 1508 1509 1511 1513 1515 1519 1525 1527 1528 1528 1529 1529 1529 1529 1529 1528 1528 1528 1528 1528 1528 1528 1528 1528 1528 1527 1527 1527 1527 1527 1526 1526 1525 1525 1525 1524 1524 1523 1523 1522 1522
1504 1504 1507 1507 1509 1510 1508 1509 1511 1512 1515 1516 1517 1519 1524 1527 1528 1529 1529 1530 1530 1531 1531 1530 1530 1529 1529 1530 1530 1529 1529 1529 1529 1529 1529 1529 1529 1528 1528 1527 1527 1526 1526 1526 1525 1525 1524 1524 1524
1504 1508 1512 1509 1509 1510 1509 1510 1513 1515 1516 1518 1520 1522 1525 1527 1528 1529 1530 1531 1531 1532 1532 1532 1532 1532 1531 1531 1531 1531 1531 1531 1531 1531 1531 1531 1531 1530 1530 1529 1529 1528 1528 1527 1527 1526 1526 1526 1526
1505 1511 1510 1506 1506 1508 1510 1512 1514 1516 1518 1520 1522 1524 1526 1527 1528 1529 1530 1531 1531 1532 1533 1533 1533 1533 1533 1533 1533 1532 1532 1532 1532 1532 1532 1532 1532 1532 1532 1531 1530 1529 1529 1529 1529 1528 1528 1528 1527
1505 1509 1508 1508 1509 1510 1511 1514 1515 1516 1519 1521 1523 1525 1527 1528 1529 1530 1531 1531 1532 1533 1533 1534 1533 1534 1534 1534 1534 1534 1534 1534 1533 1533 1534 1534 1534 1533 1533 1532 1531 1531 1531 1530 1530 1530 1530 1530 1529
1506 1507 1508 1510 1511 1512 1513 1515 1517 1519 1521 1522 1523 1525 1527 1528 1529 1530 1531 1532 1533 1533 1534 1534 1534 1534 1534 1534 1534 1534 1534 1534 1534 1534 1535 1535 1534 1534 1534 1533 1533 1533 1532 1532 1532 1532 1531 1531 1531
1507 1509 1510 1512 1513 1514 1515 1516 1518 1520 1522 1523 1524 1526 1527 1528 1529 1530 1532 1533 1533 1533 1533 1534 1534 1535 1535 1534 1535 1535 1535 1535 1535 1535 1535 1535 1535 1535 1535 1534 1534 1534 1533 1533 1533 1533 1532 1532 1532
1508 1509 1511 1512 1513 1515 1515 1517 1519 1521 1522 1523 1524 1526 1527 1528 1529 1530 1531 1532 1532 1533 1533 1534 1534 1535 1535 1535 1535 1535 1535 1535 1535 1535 1535 1535 1535 1535 1535 1535 1535 1534 1534 1534 1534 1533 1533 1533 1533
1509 1510 1511 1512 1512 1513 1515 1518 1518 1520 1521 1523 1524 1526 1527 1528 1529 1530 1531 1532 1532 1533 1533 1534 1534 1535 1535 1535 1535 1535 1535 1535 1535 1535 1535 1535 1536 1535 1535 1535 1535 1535 1535 1534 1534 1534 1534 1534 1533
1507 1510 1515 1511 1510 1511 1517 1522 1517 1518 1520 1522 1523 1525 1526 1528 1529 1530 1531 1531 1532 1533 1533 1534 1534 1535 1535 1535 1535 1536 1536 1536 1536 1536 1536 1536 1535 1535 1535 1535 1535 1535 1535 1535 1535 1535 1534 1534 1534
1507 1512 1513 1510 1507 1508 1513 1519 1516 1517 1518 1520 1522 1524 1525 1527 1528 1529 1530 1531 1532 1532 1533 1533 1534 1535 1535 1535 1535 1536 1536 1536 1536 1536 1536 1536 1535 1535 1535 1535 1535 1535 1535 1535 1535 1535 1535 1535 1535
1511 1509 1509 1509 1506 1508 1512 1515 1513 1514 1516 1518 1520 1521 1523 1524 1526 1528 1529 1530 1531 1532 1533 1533 1534 1534 1535 1535 1535 1535 1536 1536 1536 1536 1535 1535 1535 1536 1535 1535 1535 1535 1535 1535 1535 1535 1535 1535 1535
1502 1505 1509 1506 1503 1507 1510 1511 1510 1511 1513 1515 1517 1519 1520 1522 1524 1526 1528 1530 1531 1532 1532 1533 1533 1534 1534 1534 1535 1535 1535 1535 1535 1536 1535 1535 1535 1535 1535 1535 1535 1535 1535 1535 1535 1535 1535 1535 1535
1502 1507 1508 1506 1502 1504 1508 1508 1506 1507 1509 1511 1513 1516 1518 1520 1522 1524 1526 1528 1530 1531 1532 1532 1533 1533 1534 1534 1534 1535 1535 1535 1535 1535 1535 1535 1535 1534 1534 1534 1534 1534 1534 1534 1534 1534 1534 1534 1535
1503 1506 1507 1507 1504 1502 1506 1510 1504 1503 1506 1509 1511 1513 1516 1518 1520 1522 1524 1526 1528 1530 1531 1532 1532 1533 1533 1534 1534 1534 1534 1534 1534 1534 1534 1534 1534 1534 1533 1533 1533 1533 1533 1533 1533 1533 1533 1534 1534
1506 1501 1502 1504 1509 1510 1507 1518 1507 1500 1503 1506 1509 1511 1513 1516 1518 1520 1522 1524 1526 1528 1530 1531 1532 1532 1532 1533 1533 1533 1533 1533 1534 1534 1533 1533 1533 1533 1533 1532 1532 1532 1532 1532 1532 1532 1532 1533 1533
1502 1499 1501 1503 1506 1508 1504 1510 1506 1498 1503 1504 1506 1509 1511 1514 1516 1518 1520 1522 1524 1526 1528 1529 1530 1531 1531 1532 1532 1532 1533 1533 1533 1533 1533 1532 1532 1532 1531 1531 1531 1531 1531 1531 1531 1531 1531 1532 1532
1499 1500 1500 1500 1504 1517 1504 1508 1509 1499 1498 1500 1503 1507 1509 1512 1514 1516 1518 1521 1523 1525 1526 1528 1529 1529 1530 1531 1531 1531 1532 1532 1532 1532 1531 1531 1531 1531 1530 1530 1530 1529 1529 1529 1529 1530 1530 1530 1530
1500 1508 1518 1519 1519 1513 1495 1501 1504 1494 1493 1497 1500 1504 1508 1510 1512 1514 1516 1518 1521 1522 1524 1526 1527 1528 1528 1529 1530 1530 1530 1530 1530 1530 1530 1530 1529 1529 1529 1529 1528 1528 1527 1527 1527 1528 1528 1528 1529
1499 1504 1519 1527 1521 1509 1498 1502 1500 1491 1493 1496 1499 1503 1506 1508 1510 1513 1515 1516 1518 1520 1522 1523 1525 1526 1527 1527 1528 1529 1529 1529 1529 1529 1529 1528 1528 1528 1527 1527 1526 1526 1526 1526 1526 1526 1526 1527 1527
1500 1501 1499 1507 1507 1511 1502 1498 1494 1491 1494 1496 1499 1502 1505 1507 1509 1511 1513 1515 1517 1519 1520 1522 1523 1524 1524 1525 1526 1527 1527 1527 1527 1527 1527 1527 1527 1526 1526 1525 1525 1525 1524 1524 1524 1524 1524 1525 1525
1495 1496 1501 1507 1518 1521 1507 1500 1501 1496 1496 1496 1498 1501 1504 1506 1508 1510 1512 1514 1515 1517 1519 1520 1521 1522 1522 1523 1524 1524 1524 1525 1525 1525 1525 1525 1525 1524 1524 1523 1523 1523 1523 1522 1522 1522 1522 1523 1523
1496 1498 1498 1501 1503 1517 1519 1511 1490 1492 1493 1495 1497 1500 1503 1505 1507 1509 1511 1513 1514 1516 1517 1518 1519 1520 1520 1521 1521 1522 1522 1522 1522 1523 1522 1522 1522 1522 1522 1522 1521 1521 1521 1521 1521 1520 1520 1521 1521
1491 1493 1497 1509 1508 1504 1511 1510 1487 1489 1492 1494 1496 1499 1502 1504 1506 1508 1510 1511 1513 1514 1515 1516 1517 1517 1518 1518 1519 1519 1519 1520 1520 1520 1520 1520 1520 1520 1520 1520 1519 1519 1519 1519 1519 1519 1518 1519 1519